Wind_Speed
30 28 26 25 24 24 24 25 24 24 23 23 22 22 22 21 20 19 19 17 16 16 14 13 12 12 12 11 10 10 9 9 10 9 9 8 8 8 7 7 8 8 8 7 7 8 9 10 11 12 13 14 14 14 13 12 11 10 10 10 9 9 9 9 9 8 8 8 8 9 10 10 12 13 13 15 16 17 17 19 21 21 20 19 17
31 29 28 27 25 24 24 24 25 25 25 24 23 23 22 22 21 21 21 19 18 17 16 14 13 13 13 13 12 12 11 11 11 11 10 10 10 9 9 9 9 9 8 8 8 9 10 11 12 12 13 13 14 13 12 12 11 10 10 9 9 8 8 8 8 7 7 8 10 11 12 12 14 16 16 17 18 19 20 21 22 22 21 20 18
30 30 29 28 27 26 25 25 25 26 27 26 25 24 23 22 23 22 22 21 20 19 17 16 15 15 14 14 14 14 13 12 12 12 12 11 11 11 11 10 10 10 10 9 9 10 10 11 12 12 13 13 13 12 12 12 11 11 10 10 9 9 10 9 9 9 8 8 11 13 14 15 17 19 19 20 21 21 21 22 22 23 22 21 18
29 29 30 29 28 28 27 26 26 26 27 27 26 26 25 24 24 23 23 23 22 21 20 19 18 17 16 15 15 15 15 14 14 13 13 13 13 13 13 12 11 11 11 11 11 11 11 12 13 13 14 14 13 13 13 12 12 12 12 12 11 11 12 12 11 11 10 10 11 13 15 16 18 20 22 22 23 23 22 22 22 22 22 21 19
29 29 29 29 29 29 29 29 28 28 27 27 26 26 27 26 26 25 24 24 24 23 23 21 20 18 17 16 16 16 16 16 16 15 14 14 14 14 15 14 13 13 13 12 12 13 13 13 14 14 14 14 14 14 14 13 13 14 14 14 14 14 14 13 13 14 14 13 13 14 16 18 19 21 23 23 24 24 24 23 23 22 21 22 20
28 29 29 29 30 30 30 29 29 29 29 28 27 26 27 27 27 27 26 25 25 25 25 24 23 21 19 18 17 17 17 18 18 17 16 16 15 15 16 16 15 15 14 14 14 14 14 14 15 15 15 14 15 14 14 14 14 15 15 15 16 16 16 15 16 17 17 17 17 17 18 19 20 22 24 25 25 25 24 23 23 23 21 21 20
26 27 29 29 30 30 30 30 30 30 30 29 29 28 27 27 27 27 27 27 26 26 26 26 25 23 22 20 19 18 18 18 19 19 18 18 17 17 17 17 17 17 17 16 16 16 16 16 16 16 16 15 16 16 16 17 17 17 17 17 18 18 18 18 19 20 20 21 20 20 20 21 22 23 25 26 27 26 25 22 21 22 23 22 21
24 25 27 29 29 30 30 30 30 30 30 30 30 30 29 28 28 28 28 28 27 27 26 26 26 25 25 23 22 21 20 20 19 20 19 19 19 18 18 18 18 18 19 19 19 18 18 18 18 18 17 17 17 18 18 19 19 19 19 20 20 20 21 21 22 23 23 23 22 22 22 22 23 24 26 27 28 27 26 23 21 21 22 23 22
24 24 26 27 28 28 29 30 31 31 31 31 31 31 31 31 30 29 29 28 28 27 27 26 27 27 26 25 24 23 23 21 20 20 20 20 20 20 19 19 19 20 20 20 21 21 20 20 20 19 19 19 20 20 20 21 21 21 21 22 23 23 24 24 24 25 25 25 24 24 24 24 24 25 26 28 29 28 27 25 22 21 21 22 23
25 24 25 26 25 25 27 28 30 31 32 32 32 32 32 32 32 31 31 30 29 29 28 28 28 27 27 26 26 25 24 23 21 21 21 21 21 21 21 21 21 21 21 22 23 23 23 22 22 22 22 22 22 22 22 23 23 23 23 24 25 26 26 26 26 26 27 27 26 26 26 25 25 26 27 27 29 29 27 25 24 23 22 22 23
26 25 25 24 23 24 25 27 29 31 32 32 32 33 33 33 33 32 32 32 32 31 30 30 29 28 28 27 26 26 25 23 22 22 22 22 22 23 23 22 22 22 23 23 23 24 24 24 24 24 24 24 24 24 25 25 26 26 26 27 27 28 29 28 28 28 28 28 28 27 27 26 25 25 27 27 28 28 27 26 25 24 23 22 22
27 26 24 23 23 24 25 26 28 30 32 32 33 33 33 34 33 33 33 33 33 33 32 32 31 30 30 29 28 27 25 24 23 23 23 24 24 24 24 24 24 24 24 24 24 24 24 25 26 26 26 26 26 26 26 27 27 28 28 28 29 29 29 29 29 28 28 28 28 27 26 26 24 24 26 27 28 28 28 27 25 24 23 22 22
28 27 25 22 22 23 25 26 28 30 31 32 33 33 33 34 34 33 33 33 33 33 33 33 33 33 32 31 30 28 27 25 25 25 25 25 25 26 26 26 26 26 25 25 25 25 25 25 26 27 26 26 26 26 26 27 27 28 28 28 29 28 28 28 27 27 26 26 26 25 24 24 24 23 24 27 28 28 28 27 26 25 24 23 22
30 29 26 23 22 22 24 26 28 29 30 31 32 33 33 33 33 33 33 33 33 33 32 33 33 33 33 32 31 30 28 27 26 26 26 26 27 27 27 27 27 27 27 27 27 26 26 26 27 26 26 26 26 26 26 26 26 26 27 27 26 26 26 26 25 25 25 25 25 23 21 22 23 22 23 27 28 28 28 27 26 26 25 24 23
33 31 28 24 22 23 25 26 27 27 27 28 30 32 32 32 32 32 32 32 32 32 32 32 32 32 32 32 32 31 29 27 27 27 27 27 28 29 29 29 29 29 28 28 28 28 27 28 27 27 27 27 27 27 26 26 25 25 25 25 24 24 24 23 23 23 24 24 24 23 21 21 22 22 22 25 27 27 28 28 27 25 25 25 25
35 34 32 27 25 24 25 26 25 25 26 27 28 29 29 29 29 30 30 31 30 31 31 31 31 31 31 32 32 31 28 27 27 28 28 29 30 31 31 31 30 30 29 29 29 28 28 28 28 27 27 27 27 26 26 26 26 25 25 24 23 23 23 22 22 23 24 24 24 24 22 21 22 22 22 24 25 26 28 28 27 25 26 26 25
38 37 35 31 28 27 27 27 26 25 27 28 29 28 27 27 26 27 27 28 29 29 29 29 29 30 30 30 31 30 28 27 27 27 28 29 31 32 33 32 32 31 30 29 29 29 28 28 28 28 27 26 25 25 25 26 26 26 25 24 24 24 23 22 22 24 25 25 25 24 24 24 24 24 24 24 25 26 27 27 25 26 27 27 26
40 39 38 35 31 29 29 29 28 28 28 30 30 29 29 28 27 26 26 26 26 27 28 28 28 28 28 28 29 28 27 27 27 28 28 30 32 33 34 34 33 33 31 30 30 29 29 28 28 28 27 25 24 24 25 26 27 27 26 25 26 25 22 21 23 24 25 26 26 26 26 26 25 25 25 25 25 26 26 25 24 26 27 27 26
42 42 40 38 33 31 30 30 29 29 30 30 30 30 29 28 27 28 28 28 26 25 26 27 28 27 27 27 27 27 26 26 27 28 28 29 31 33 34 35 35 34 33 32 31 31 30 29 28 28 27 25 24 24 25 27 28 27 27 28 28 25 21 22 24 26 27 28 28 28 28 27 27 26 26 26 26 26 25 24 24 25 26 26 27
46 43 41 38 35 33 32 31 31 30 29 29 29 28 26 26 27 28 30 29 28 27 27 28 28 27 27 26 26 26 26 25 26 27 28 29 31 32 34 35 35 35 34 33 33 32 31 30 29 28 28 26 24 24 25 27 28 28 28 30 29 25 23 24 27 27 28 29 29 29 29 28 27 26 25 25 25 25 25 24 24 25 26 26 27
42 39 38 39 36 34 34 34 33 32 30 29 28 27 26 25 27 29 30 29 30 30 29 29 28 28 27 27 26 26 25 25 26 27 28 29 30 32 34 34 34 34 34 34 34 33 33 32 30 29 28 27 26 25 26 28 29 29 29 30 29 26 26 28 29 29 30 30 29 29 30 29 28 26 25 24 24 24 24 25 25 26 26 26 27
38 36 37 39 37 35 35 35 35 33 31 30 29 28 28 27 28 28 28 28 29 30 31 31 30 29 29 28 27 26 26 26 27 27 28 29 30 32 34 34 33 33 34 34 34 33 32 32 31 30 30 29 28 27 27 28 29 30 30 30 29 28 29 31 31 32 31 30 29 30 29 28 27 26 25 24 24 24 25 26 26 27 27 27 27
33 35 35 36 36 36 35 34 34 33 32 32 31 30 29 28 28 27 26 25 26 28 30 32 33 32 31 30 28 28 28 27 28 28 29 29 30 31 33 34 34 35 36 35 34 33 32 31 31 30 30 30 30 29 29 30 31 32 32 32 32 31 31 32 33 33 32 31 30 30 28 27 26 26 25 25 26 26 27 28 28 28 28 28 28
30 33 34 35 36 36 35 33 33 33 33 32 32 31 30 28 27 26 23 22 23 24 25 28 32 34 35 33 31 30 30 30 29 29 29 30 30 31 32 33 35 36 37 36 35 34 33 32 31 31 30 30 31 31 31 32 33 34 34 35 35 34 33 32 32 33 33 32 31 30 28 26 26 26 26 27 28 29 29 29 28 28 29 29 29
31 33 34 36 36 36 35 33 33 32 32 32 32 32 30 28 27 24 21 21 22 23 23 26 29 33 36 37 36 34 33 32 31 31 30 30 30 31 32 33 34 36 37 37 36 35 35 34 34 33 33 33 33 33 33 34 34 35 36 37 38 37 35 33 32 33 33 32 32 31 29 27 27 28 29 29 30 30 30 29 29 30 30 30 30
31 34 35 36 36 36 35 34 33 33 33 32 33 32 30 27 25 24 22 22 22 23 24 25 27 31 35 38 39 39 37 35 33 32 32 32 31 32 32 33 34 35 36 37 37 37 36 36 36 36 36 36 36 36 36 36 36 37 39 40 40 39 37 35 34 33 32 32 32 32 30 29 30 30 30 30 30 30 30 30 31 31 30 30 31
27 32 35 36 36 36 35 35 35 34 33 33 33 32 30 27 25 24 22 22 21 22 23 24 24 26 30 34 38 40 40 38 36 34 34 34 33 33 33 33 34 35 36 36 36 36 36 37 38 38 39 39 39 39 39 39 39 40 41 42 42 41 39 39 37 35 33 31 31 31 30 30 31 31 30 30 31 31 31 31 31 31 31 31 31
23 29 33 36 38 36 31 31 32 32 32 32 32 31 29 28 26 24 22 20 20 22 23 24 24 24 26 29 32 36 40 40 39 38 37 36 34 33 33 33 34 35 35 35 36 36 37 38 39 39 40 40 40 40 41 41 40 40 41 42 42 42 41 41 40 37 33 31 31 31 31 31 32 31 31 32 32 31 32 32 32 32 32 31 31
19 25 29 32 37 38 30 26 29 31 30 31 32 30 30 30 28 25 23 21 21 22 24 25 24 24 25 26 28 32 36 38 36 35 36 36 36 35 34 34 34 34 34 35 36 38 39 40 40 40 40 40 40 40 41 42 41 40 39 39 40 41 41 41 40 37 35 33 32 32 31 31 32 32 32 32 32 32 33 33 33 33 32 31 31
17 21 23 25 32 40 35 26 28 31 31 32 33 31 31 32 31 28 25 23 23 24 25 26 25 24 25 26 27 29 32 32 30 29 32 34 35 35 36 35 35 36 35 36 38 39 40 41 42 42 41 41 40 41 42 42 41 40 38 37 38 40 40 40 39 37 36 35 34 32 31 32 32 32 32 33 32 33 34 34 34 34 33 32 31
19 18 20 21 27 37 36 28 27 31 32 33 34 33 33 34 33 31 28 26 25 26 27 27 26 26 26 26 26 27 29 29 30 31 32 33 33 34 34 34 34 36 37 38 39 40 41 42 43 43 43 42 41 41 42 42 42 39 38 37 38 39 39 38 37 36 35 35 33 32 31 32 32 32 32 32 32 34 34 34 34 34 33 33 32
25 21 19 20 23 29 32 29 28 30 32 33 34 35 35 35 34 32 30 29 29 29 28 28 28 27 27 27 27 28 28 29 30 31 31 32 33 33 32 31 32 35 37 39 40 41 41 44 45 45 44 44 42 41 41 41 41 39 38 38 38 38 38 36 34 34 34 33 33 32 32 32 32 32 32 32 32 33 33 33 34 34 33 33 32
31 28 24 22 21 24 28 28 28 29 30 32 33 34 35 35 34 33 33 32 32 31 30 29 28 29 29 28 28 28 29 30 31 32 32 32 32 31 29 28 29 32 36 39 40 41 42 44 46 46 46 45 43 41 41 40 39 39 39 39 38 36 35 33 32 33 33 32 32 32 32 32 32 32 32 32 32 32 32 32 33 32 33 34 34
32 33 31 28 25 24 26 29 29 28 29 31 32 32 33 34 34 35 35 35 35 34 33 31 30 30 30 30 29 29 29 30 31 31 31 30 30 30 29 28 28 31 34 36 38 40 43 45 47 47 48 47 44 43 42 40 39 39 39 38 37 35 33 32 32 32 32 32 32 33 33 33 34 34 34 33 32 32 32 32 32 33 35 35 34
32 34 35 34 30 27 26 28 29 29 28 29 30 31 32 33 34 36 37 37 37 37 37 36 34 32 32 31 31 30 30 30 31 31 30 30 30 32 33 32 32 33 34 34 36 38 42 46 47 47 48 47 46 45 43 41 40 40 39 37 36 33 32 32 32 31 32 33 34 35 36 37 37 37 36 34 33 32 32 32 32 34 35 33 32
33 33 35 36 35 33 31 30 30 30 30 29 29 29 30 32 34 36 37 37 37 37 36 36 36 36 35 33 32 32 31 31 32 32 32 32 33 34 35 35 35 36 36 35 35 37 40 44 47 47 47 47 47 47 45 43 40 40 39 37 35 33 33 32 31 31 33 35 36 37 38 39 38 36 35 34 33 32 31 31 32 33 33 33 35
35 34 34 36 36 36 35 34 33 33 32 32 32 31 30 31 33 35 37 38 38 37 34 33 34 37 38 36 33 33 34 35 35 35 36 36 36 36 36 36 36 38 38 37 36 36 38 42 46 48 48 48 48 47 46 44 41 40 39 37 35 34 33 33 32 33 36 37 37 38 38 37 35 33 33 33 34 34 33 33 34 35 35 36 38
37 36 35 36 36 37 37 36 36 36 35 34 34 35 34 33 34 35 37 38 38 39 37 34 33 35 37 37 36 37 39 40 40 40 41 41 41 41 40 39 38 38 39 38 37 37 37 41 45 48 49 48 47 47 47 46 43 41 40 38 36 34 34 34 34 36 37 37 37 38 37 34 32 31 32 34 36 37 37 37 38 38 38 38 37
39 38 37 36 36 37 37 37 37 38 38 37 37 37 37 37 36 36 38 39 40 42 42 39 36 34 33 35 37 40 43 44 44 44 43 43 42 42 42 42 42 41 41 40 40 39 39 40 43 46 49 49 48 48 48 47 45 42 40 38 36 35 35 35 36 37 37 37 37 38 37 33 29 29 33 37 39 39 40 41 41 39 38 37 35
38 38 37 36 36 37 38 38 37 37 39 40 39 38 38 39 39 38 38 40 42 44 45 45 42 37 33 33 38 42 44 45 45 45 46 46 44 43 43 44 46 46 45 43 40 40 39 38 38 42 47 49 49 48 48 48 46 43 40 39 38 37 37 37 38 39 39 37 37 38 36 31 28 30 36 41 42 42 42 43 42 40 39 38 36
35 36 36 35 35 36 37 38 38 37 38 39 40 40 39 39 40 41 41 42 44 46 47 48 47 42 38 36 38 41 44 45 46 47 48 48 48 47 45 45 46 48 48 46 43 44 46 44 41 42 46 49 49 49 48 48 46 44 41 40 39 38 39 40 40 40 39 38 37 37 33 30 32 38 42 45 45 44 43 44 43 40 38 38 38
31 33 34 34 34 34 35 37 37 36 36 37 39 39 39 37 38 40 42 44 46 47 48 49 49 46 42 40 39 42 44 46 47 49 49 49 49 49 48 46 46 47 49 49 48 48 51 50 47 46 47 48 49 50 49 48 46 44 43 41 40 40 41 41 41 40 40 39 38 35 31 32 39 44 46 47 48 46 45 47 46 41 37 37 39
29 30 32 32 32 33 34 34 35 35 35 35 36 36 37 36 35 36 39 42 45 47 48 49 49 48 45 43 42 43 44 46 48 50 50 50 50 50 50 49 47 47 49 50 49 47 48 50 50 49 48 48 49 51 51 49 46 45 44 44 43 43 43 42 41 40 40 40 39 36 33 35 42 46 48 50 50 46 45 46 47 44 40 38 38
27 28 29 30 31 32 32 33 33 33 33 34 34 34 34 34 33 34 35 38 41 43 45 47 48 48 46 44 44 44 45 46 49 51 51 51 51 51 51 50 49 49 50 51 50 48 47 49 51 51 50 49 50 52 52 50 48 47 46 45 44 45 45 44 41 39 39 40 40 38 36 39 44 48 51 52 50 46 44 45 44 42 42 41 41
26 27 27 28 29 30 31 32 32 32 32 32 33 33 33 32 31 31 32 34 36 39 41 43 45 46 46 45 45 44 45 48 50 51 52 52 51 51 50 50 50 51 51 51 51 51 50 50 51 51 51 51 51 52 53 52 49 47 46 45 45 46 45 42 40 40 41 41 39 38 39 42 46 49 51 52 49 46 46 45 42 39 41 43 43
24 25 26 27 27 29 30 30 31 32 31 30 30 31 32 32 31 30 30 31 33 36 38 40 42 43 44 44 44 44 46 49 51 52 53 53 52 51 50 49 49 50 50 49 50 51 51 51 51 52 52 52 51 52 53 51 49 47 46 45 44 44 42 40 40 42 42 41 39 39 41 43 46 50 52 52 49 47 46 45 43 40 40 41 40
22 23 24 25 26 27 28 29 30 31 31 30 30 29 30 30 29 28 28 29 31 34 36 39 40 41 42 42 43 45 47 51 52 54 54 54 52 51 51 49 47 46 47 48 49 50 52 52 51 52 52 51 49 50 50 49 47 46 45 44 42 41 39 40 41 41 39 39 40 41 42 43 45 49 50 49 47 47 47 46 44 40 39 38 36
21 21 21 22 23 24 26 27 28 30 31 31 31 30 29 29 29 29 28 28 30 31 34 37 39 40 41 41 43 46 50 53 54 54 55 54 53 52 51 48 45 44 45 47 48 49 52 52 51 51 50 47 45 47 49 47 44 42 42 41 40 37 37 38 39 41 42 44 45 44 43 43 43 43 44 46 47 47 47 45 42 39 38 39 38
20 20 20 19 19 20 22 24 26 27 29 31 31 31 31 30 30 30 30 29 29 30 32 34 37 38 38 40 43 47 50 52 53 53 53 54 54 52 50 47 45 45 45 46 47 48 50 50 50 50 49 46 44 45 48 47 43 40 38 38 35 34 37 41 43 45 47 47 45 44 43 42 42 43 45 47 50 50 48 45 42 39 39 40 39
21 20 19 17 16 16 18 20 23 24 26 28 30 31 31 31 31 31 31 31 31 31 32 34 35 35 35 37 42 46 48 49 50 50 50 51 51 50 48 45 44 44 45 46 47 47 47 48 49 50 48 47 46 46 46 45 40 35 34 35 35 37 43 49 50 50 49 47 46 46 45 43 43 45 48 50 53 52 48 44 41 40 41 41 40
22 20 19 18 16 15 15 17 20 21 23 25 27 29 30 31 31 32 32 32 32 32 32 32 33 32 33 36 40 43 45 45 45 45 47 48 48 47 45 43 44 44 43 43 44 45 45 46 47 46 46 45 44 42 41 41 39 36 35 37 39 43 49 51 48 46 44 44 46 50 49 47 47 50 51 53 53 50 44 40 40 40 40 40 39
Wind_Direction
220 222 224 224 223 222 222 222 223 224 223 220 216 212 211 212 213 216 220 222 223 226 229 227 227 228 229 228 226 223 223 228 232 232 231 232 233 230 218 206 202 199 196 193 193 191 191 191 190 189 184 176 170 169 171 172 175 177 176 179 184 190 196 203 210 225 239 244 257 267 272 287 297 299 306 315 317 316 318 323 325 324 324 322 322
220 222 224 225 225 225 225 225 225 226 226 225 222 218 215 213 214 216 220 224 226 227 230 231 230 231 232 231 229 227 224 225 229 231 232 232 232 233 229 220 214 211 205 201 199 195 194 194 192 191 188 182 176 175 178 180 183 189 194 198 203 207 214 220 223 234 255 264 272 277 280 290 299 303 308 313 314 313 314 318 319 321 321 319 320
219 222 224 226 227 227 227 227 227 228 228 227 226 224 221 218 218 218 220 225 229 230 231 233 233 233 233 232 231 229 227 226 228 229 231 233 232 232 232 227 222 217 212 207 202 196 193 196 198 194 189 187 186 186 188 188 192 199 206 212 218 224 229 233 236 240 251 269 280 286 289 295 301 303 306 308 308 307 309 312 314 316 317 316 317
217 220 223 226 228 229 229 229 229 230 230 229 229 227 227 225 224 223 221 224 229 233 235 235 235 234 233 233 232 230 228 227 228 229 229 232 233 233 232 230 226 223 219 214 207 201 195 195 201 200 194 193 197 200 201 200 203 209 216 222 227 234 238 241 246 249 250 256 271 284 290 293 297 299 299 301 302 302 304 307 309 312 313 311 312
214 218 222 225 227 229 231 230 230 230 231 231 231 230 230 229 229 228 227 226 228 232 236 237 238 238 235 234 233 231 229 227 227 229 230 231 232 234 234 232 229 227 225 223 217 209 203 200 205 207 203 202 205 211 213 214 216 219 225 231 235 239 243 248 255 259 261 260 263 274 283 286 289 292 293 294 295 296 299 303 305 308 308 306 306
215 216 219 222 226 229 232 232 231 231 231 232 233 232 232 232 232 232 232 232 231 231 234 237 240 241 240 238 235 232 231 229 227 227 228 231 232 233 235 234 232 229 229 229 226 220 215 212 213 214 212 211 215 220 225 227 230 232 236 241 245 246 251 258 263 265 267 267 267 269 277 282 285 288 290 291 291 291 294 298 301 303 302 300 299
220 218 218 220 224 228 232 233 234 233 233 233 234 234 234 234 233 233 234 235 235 234 234 235 239 241 242 241 239 236 233 232 230 228 228 229 231 233 235 236 235 233 232 232 232 230 226 223 224 224 222 220 222 226 231 234 238 240 244 248 251 254 258 263 267 268 268 269 270 271 274 278 283 286 287 288 289 289 290 293 296 296 297 295 294
228 224 222 221 222 226 230 233 235 236 235 235 235 235 235 235 235 234 234 236 237 236 236 235 236 239 240 241 240 239 236 234 232 231 230 231 231 232 235 238 238 237 235 234 235 235 233 232 232 233 232 230 231 232 236 239 242 245 249 253 256 258 262 264 266 268 269 269 270 272 273 275 280 284 285 286 286 287 289 291 291 289 288 288 288
234 229 226 224 223 224 227 231 235 236 237 236 236 236 236 235 236 236 236 236 237 238 238 237 236 236 237 238 239 239 237 235 233 233 234 234 234 234 236 238 239 239 238 237 237 237 238 237 237 238 238 238 238 239 241 244 247 249 253 257 260 261 263 265 266 268 270 271 272 274 274 275 279 282 283 284 284 285 288 290 289 287 283 282 282
237 232 228 226 225 224 226 229 232 235 237 237 237 237 237 237 237 236 236 237 238 239 240 240 239 238 237 237 238 239 238 235 234 234 235 236 237 237 237 238 239 240 240 239 238 238 239 240 240 241 241 242 242 243 245 248 251 253 255 258 261 263 265 266 268 270 272 273 275 276 275 276 280 281 281 281 282 283 285 286 286 284 282 279 279
239 235 230 227 226 225 225 226 229 232 235 237 237 237 238 239 239 238 237 237 238 239 240 242 243 242 241 240 240 240 238 236 235 235 235 236 237 238 239 239 239 240 241 241 240 240 240 240 240 241 242 244 245 247 249 251 253 255 257 259 261 263 265 267 269 272 274 275 276 277 277 277 280 281 280 280 280 281 282 282 281 280 278 277 275
239 236 234 231 227 225 224 224 226 229 232 235 237 237 238 239 240 240 239 239 239 239 239 241 243 245 245 244 244 242 240 239 238 237 236 236 237 239 239 239 240 240 241 242 242 242 242 242 242 242 242 244 246 247 250 252 254 256 258 259 261 263 265 267 269 271 272 274 274 276 277 278 278 278 278 279 279 279 279 279 278 277 276 274 272
238 236 235 234 230 226 224 223 224 226 228 231 234 236 238 239 240 241 241 241 241 240 240 240 241 243 244 245 246 245 243 242 241 240 239 238 238 239 240 240 240 241 241 242 243 244 244 244 244 244 245 245 246 247 249 250 252 255 256 258 260 262 264 266 268 269 271 272 273 275 276 276 275 276 277 277 278 279 279 278 277 276 274 273 271
238 237 236 236 233 229 225 224 224 224 226 228 230 233 236 238 239 241 242 243 243 243 243 242 242 242 244 245 246 246 244 243 242 241 240 239 239 240 241 241 241 241 242 242 243 244 245 245 246 246 247 249 250 251 252 253 254 255 257 258 260 262 264 266 269 271 272 273 273 273 273 274 275 275 275 276 277 278 278 278 276 274 274 274 273
238 238 238 236 234 230 225 222 222 222 223 226 229 231 234 237 239 241 242 244 245 245 245 245 245 244 245 245 246 246 244 242 241 241 240 240 240 240 241 241 241 242 242 243 244 244 245 246 247 247 248 250 253 255 257 257 258 259 260 261 263 264 266 268 270 272 274 274 275 275 274 273 275 275 275 276 278 279 278 278 277 275 273 274 275
239 238 238 236 232 229 226 222 219 217 218 221 225 228 232 235 238 241 244 245 246 246 246 246 246 246 246 246 247 247 245 243 241 240 239 239 240 240 241 242 242 243 243 243 245 246 246 248 248 248 248 249 251 255 258 260 261 261 262 264 266 266 267 269 270 271 272 272 274 275 275 274 274 275 275 275 276 277 278 279 280 277 273 273 275
240 239 237 235 230 226 224 223 220 216 215 218 221 224 227 229 233 238 243 246 247 247 247 247 247 247 246 246 247 247 246 244 243 241 239 238 239 241 242 242 243 244 244 244 246 247 248 249 250 250 249 248 250 252 255 258 260 261 263 265 265 265 266 266 266 266 267 268 269 270 271 271 272 272 273 275 276 277 278 280 281 277 273 273 275
239 240 239 236 231 227 225 224 221 218 217 219 220 222 223 225 228 232 237 241 244 247 248 248 247 247 247 246 246 246 245 244 243 242 241 240 240 241 242 243 244 245 245 246 246 247 248 249 251 251 251 250 249 249 251 254 257 260 262 263 263 263 264 264 264 263 264 264 265 266 266 267 269 271 274 277 278 279 280 281 278 274 272 272 274
238 239 240 238 234 231 230 229 227 224 222 222 222 223 225 227 230 233 236 238 240 244 246 247 247 248 247 246 245 244 243 242 242 242 241 241 241 242 243 243 244 245 246 247 248 248 249 250 251 252 253 252 250 249 250 253 256 258 260 262 262 263 265 265 264 263 262 262 263 265 265 266 269 272 275 278 279 280 280 279 276 273 271 270 270
236 235 237 239 237 236 235 234 233 232 230 228 227 227 229 231 233 237 240 241 241 243 246 248 249 249 248 247 246 244 242 240 240 240 240 241 242 243 244 245 245 246 246 247 249 250 250 251 251 253 255 254 253 252 253 255 258 259 261 263 265 267 267 265 263 262 262 262 263 264 265 267 269 273 275 277 278 279 278 277 275 273 270 269 269
231 232 235 237 237 238 237 236 237 237 237 236 234 234 236 236 235 237 242 244 244 245 247 249 250 250 250 249 247 245 243 241 239 239 239 240 241 242 244 247 248 248 249 249 249 249 250 251 252 253 254 255 255 254 255 256 258 259 260 263 266 268 266 264 263 263 262 262 262 262 264 266 269 272 275 277 278 278 276 274 273 271 271 270 270
227 227 231 233 235 237 238 238 239 241 242 242 243 244 247 245 239 237 240 246 249 251 250 250 251 251 250 249 247 246 244 242 241 240 239 239 240 240 243 246 248 249 250 250 250 250 250 251 252 253 253 254 254 253 253 254 256 258 260 262 264 264 264 264 263 263 263 264 263 262 263 266 269 272 275 278 279 278 275 272 270 270 271 272 274
227 225 226 230 234 237 237 237 239 241 244 247 250 251 251 248 242 237 239 246 253 256 257 256 255 253 251 249 248 246 245 244 243 242 241 240 240 240 242 243 245 247 250 252 253 253 252 251 251 251 252 252 252 251 251 252 254 258 260 262 262 262 263 264 265 265 266 266 265 264 264 266 268 271 274 277 279 277 274 271 269 270 271 273 276
229 229 227 228 233 237 236 236 238 241 245 249 254 256 254 248 241 239 240 245 252 258 261 261 260 258 255 252 249 247 246 246 245 244 244 243 242 242 242 243 243 245 249 253 254 255 255 254 253 252 251 251 252 251 249 250 253 258 261 262 263 263 264 265 267 267 267 267 268 268 268 267 268 270 272 274 273 271 269 269 270 270 271 273 275
223 224 226 227 229 232 235 237 239 242 246 250 254 258 258 251 243 241 243 247 252 258 263 265 265 263 260 256 253 251 249 247 246 245 245 244 244 244 244 244 244 245 248 251 254 255 256 256 255 254 253 252 252 251 251 251 254 258 260 261 263 265 267 267 267 267 267 267 268 269 269 269 269 269 269 268 268 267 267 268 269 269 270 272 275
224 219 221 224 226 229 233 238 241 242 245 249 253 256 258 255 248 244 246 249 254 261 264 266 267 267 263 259 257 255 252 249 247 247 246 246 246 245 245 245 246 246 248 250 251 253 255 255 255 255 254 253 253 253 253 253 254 256 258 260 263 267 269 269 268 267 267 266 266 267 267 267 266 265 266 266 265 266 267 267 267 268 270 271 272
236 225 221 222 226 230 234 237 240 242 243 248 252 255 256 256 251 248 249 252 257 261 263 264 267 269 268 264 260 258 256 253 250 248 248 248 248 248 248 248 248 249 250 251 252 253 254 255 255 255 255 254 254 254 254 254 254 256 259 261 264 267 269 270 270 269 267 265 264 264 263 262 262 262 262 262 262 262 263 263 264 266 268 270 272
245 237 231 228 227 228 232 238 241 241 244 248 253 256 258 258 255 253 253 255 258 260 261 264 266 268 269 266 262 260 259 257 256 255 253 251 251 251 251 251 251 251 252 253 254 253 253 253 254 254 255 256 255 256 255 255 255 257 259 261 263 265 267 269 270 270 269 266 263 261 260 259 258 258 258 258 259 260 261 262 264 265 267 269 272
252 242 241 242 236 230 231 241 243 240 243 249 252 256 259 261 260 258 256 255 257 259 261 263 265 266 267 265 262 260 259 259 260 261 259 256 253 252 252 251 251 251 251 251 250 250 250 251 252 253 254 256 256 256 256 255 255 255 257 259 262 263 265 266 268 269 269 266 262 260 259 257 257 256 257 257 258 259 261 263 264 266 268 269 271
258 244 245 254 244 231 230 243 249 245 245 249 251 253 256 259 261 261 259 258 258 259 260 262 263 264 265 265 263 261 259 258 258 257 257 255 253 251 250 249 249 249 248 247 246 246 247 248 250 251 252 254 255 256 256 256 255 255 255 257 258 260 261 263 264 265 265 263 262 260 259 258 257 257 257 258 259 260 262 264 266 267 268 270 272
264 253 251 257 247 232 230 242 251 248 249 252 253 254 255 257 260 261 261 261 261 259 260 261 261 262 264 266 266 263 260 258 256 254 254 255 254 253 250 248 247 247 247 246 245 245 247 248 249 249 250 252 254 255 256 256 255 253 253 253 255 257 257 258 259 261 262 262 262 260 259 258 257 257 258 259 260 261 263 265 267 268 270 272 273
266 264 261 260 250 237 236 243 246 244 246 249 251 253 254 256 257 259 261 262 261 261 261 261 261 262 263 265 267 265 261 259 257 255 254 255 254 252 250 248 246 245 245 245 245 246 248 249 249 249 249 250 252 254 256 256 254 252 250 251 252 253 254 255 257 259 260 261 260 259 258 257 257 259 260 261 262 263 264 266 268 270 272 272 273
269 266 266 266 257 245 243 247 247 244 244 245 247 250 252 253 255 256 258 260 262 263 264 263 263 263 264 266 268 268 265 261 258 256 256 256 255 254 251 249 248 246 245 244 244 244 246 248 249 249 249 250 252 254 255 255 253 250 249 250 251 252 253 255 256 257 258 259 258 258 258 258 259 260 261 263 265 265 265 266 268 270 270 270 271
272 269 268 268 265 255 249 249 249 248 246 245 246 248 250 252 254 255 257 261 263 265 267 266 265 265 266 267 269 271 270 266 261 258 257 257 258 257 255 254 254 252 250 248 246 244 244 247 249 249 249 249 252 254 256 255 252 250 249 250 251 252 254 255 255 256 256 257 257 258 259 259 260 261 263 264 266 266 266 267 267 268 268 269 269
272 271 270 268 266 263 258 255 253 251 249 249 249 249 250 251 254 256 258 261 264 266 267 268 266 265 265 265 267 270 272 270 265 261 257 255 255 255 256 256 257 258 257 254 251 246 244 245 248 249 249 250 252 254 257 257 254 251 250 251 252 253 253 253 253 254 255 256 257 258 259 259 260 261 262 262 263 263 264 266 267 268 269 267 264
269 270 270 269 267 266 265 264 261 257 255 253 253 253 252 252 252 255 257 259 262 264 266 268 268 265 262 262 263 266 270 272 269 266 263 260 257 255 256 258 260 262 261 259 256 251 247 245 245 247 249 250 251 254 257 259 257 253 252 252 252 252 251 250 251 252 254 256 258 260 261 260 259 259 259 261 262 262 263 265 267 267 264 261 260
264 264 266 268 267 266 266 267 265 262 260 258 256 256 255 254 253 254 255 257 259 261 265 270 271 266 261 260 260 262 266 269 268 267 267 267 265 264 264 265 266 266 265 264 261 257 252 248 245 244 246 249 251 253 257 260 259 256 254 253 251 250 248 249 250 252 254 257 260 262 261 258 255 255 257 259 262 263 264 265 265 261 258 261 264
261 260 262 265 266 265 266 266 265 263 262 262 261 259 258 258 257 256 256 256 258 259 263 271 275 270 262 259 259 259 261 264 264 265 267 270 271 272 272 272 270 268 267 267 264 259 255 251 247 244 244 247 250 253 256 259 260 258 256 254 252 250 248 248 249 251 256 260 263 263 260 256 253 253 256 258 260 262 263 264 263 261 261 262 261
257 258 258 260 262 264 264 265 265 263 261 262 263 262 260 260 260 260 260 259 259 259 261 267 275 278 270 260 256 256 257 258 261 263 265 267 268 269 269 269 269 269 269 267 265 262 259 255 250 246 244 244 247 251 254 257 259 259 257 255 252 249 249 249 250 254 259 263 265 263 259 255 252 254 259 261 260 259 260 261 260 261 262 261 259
252 255 257 257 258 261 263 264 264 262 260 259 261 262 262 261 261 262 263 262 261 262 262 264 271 279 279 267 258 257 257 257 259 261 262 263 263 262 262 262 263 264 266 266 264 262 262 260 256 251 247 245 246 249 252 255 257 257 256 253 251 250 250 251 253 257 261 264 265 262 256 252 254 259 261 260 258 257 259 261 262 262 262 262 264
246 251 255 257 256 257 260 263 264 263 261 259 259 261 262 262 262 262 263 263 264 266 266 265 267 275 281 277 268 263 261 260 260 260 261 261 261 261 260 259 258 259 261 261 261 263 266 265 258 252 249 246 245 248 250 252 253 254 252 249 249 250 251 251 253 257 261 264 263 258 252 254 263 265 261 257 256 257 259 262 263 262 261 262 265
244 247 252 256 257 257 258 261 263 263 262 260 259 260 262 263 262 262 262 263 265 267 268 267 266 270 278 280 274 269 265 263 261 262 262 262 263 263 262 261 259 257 256 257 258 262 266 266 261 255 250 246 245 247 249 251 251 251 249 247 247 250 251 252 254 257 260 262 260 253 249 257 265 263 257 255 256 257 259 262 264 263 260 260 262
244 246 248 252 255 257 259 261 263 263 262 261 260 261 262 264 265 264 262 262 263 264 267 268 266 268 275 278 275 270 266 263 261 262 262 263 264 265 264 263 261 257 253 253 255 257 259 261 261 258 252 247 244 245 247 248 248 248 246 245 246 248 249 251 254 256 257 258 255 247 245 253 258 256 253 255 257 258 259 261 263 263 260 257 256
246 248 249 251 254 256 259 261 262 263 263 261 261 262 263 264 266 266 265 265 264 264 266 267 267 269 274 277 274 270 266 262 260 260 260 261 264 265 265 265 263 258 252 251 253 255 256 257 259 258 253 247 245 245 244 244 245 244 243 243 244 247 249 251 253 254 255 253 248 242 241 247 251 253 254 257 258 260 261 259 259 259 259 256 254
249 251 252 253 255 257 259 261 263 264 263 262 262 262 263 264 266 267 268 268 268 268 269 269 268 270 274 276 274 270 265 261 258 258 258 259 262 263 265 265 263 259 253 251 253 257 258 257 258 256 250 244 243 244 243 242 242 241 240 241 244 247 250 251 253 253 250 247 243 241 241 244 248 250 253 256 259 261 263 261 258 255 253 253 253
247 250 253 254 255 257 259 261 263 265 265 265 264 264 264 265 266 268 269 269 269 270 271 271 272 273 274 274 273 270 264 259 257 256 256 258 259 261 263 263 260 256 253 253 255 257 258 258 258 256 251 245 242 241 241 242 242 241 240 240 242 245 247 248 248 248 246 243 241 240 239 241 245 248 251 256 259 260 261 261 260 257 254 253 254
244 246 249 251 254 256 257 259 261 264 266 267 266 266 265 265 265 267 268 268 268 268 270 271 273 274 274 272 270 266 261 257 256 255 255 255 257 259 261 261 258 253 252 254 255 255 257 257 256 254 252 248 243 242 243 245 243 241 239 241 242 242 242 241 241 240 238 236 233 232 235 239 244 248 252 256 259 259 258 259 259 257 255 254 254
242 243 246 250 253 254 256 257 259 261 265 267 268 267 267 266 265 265 266 268 268 268 269 270 272 274 274 270 264 260 257 256 256 256 255 254 255 257 258 258 257 256 256 257 256 255 256 256 253 252 253 252 249 248 248 247 245 244 244 243 240 237 237 239 238 234 231 228 226 226 232 238 241 244 249 253 256 256 257 257 256 253 252 252 252
242 243 246 250 254 256 257 257 257 258 261 264 267 268 269 269 268 268 268 269 270 271 271 272 272 273 273 268 260 257 257 258 258 257 256 255 256 257 257 257 258 257 258 259 260 258 257 256 254 251 251 250 249 249 248 247 248 247 240 233 233 235 235 235 234 230 225 223 222 224 229 235 237 239 244 248 251 254 255 255 253 252 250 249 250
242 243 245 249 256 262 264 262 260 259 259 261 264 268 270 271 272 272 271 271 271 271 271 271 271 272 272 267 261 259 260 260 259 257 256 256 257 257 257 258 260 258 258 260 261 259 258 257 254 251 250 249 247 245 245 246 248 242 228 221 226 229 224 222 226 228 223 218 218 223 228 232 236 239 242 245 248 251 250 247 245 246 248 249 250
241 242 244 247 252 262 270 270 267 263 260 260 262 266 269 270 272 272 272 271 271 270 269 268 267 268 269 267 262 260 261 261 259 257 256 256 256 256 257 258 260 259 258 258 259 258 257 255 252 251 254 254 250 246 245 246 246 242 234 230 229 225 217 215 219 222 218 214 219 226 228 229 232 235 237 240 243 244 242 240 241 243 246 248 250
Height
3197 3199 3201 3202 3204 3206 3208 3210 3212 3214 3215 3216 3218 3219 3221 3222 3224 3226 3227 3229 3230 3232 3233 3235 3235 3236 3237 3238 3239 3240 3241 3242 3243 3243 3244 3245 3246 3247 3248 3249 3250 3251 3252 3252 3253 3254 3255 3255 3256 3257 3258 3259 3260 3261 3262 3263 3264 3265 3265 3266 3266 3266 3267 3267 3267 3268 3268 3267 3267 3267 3266 3266 3265 3264 3264 3263 3262 3261 3260 3259 3258 3257 3256 3255 3254
3195 3197 3199 3201 3202 3205 3207 3209 3210 3212 3213 3215 3216 3218 3219 3221 3223 3224 3225 3227 3228 3230 3232 3233 3234 3235 3236 3237 3238 3239 3240 3241 3242 3243 3243 3244 3245 3246 3247 3249 3250 3250 3251 3252 3252 3253 3254 3255 3256 3257 3258 3259 3260 3260 3261 3262 3263 3264 3265 3265 3265 3266 3266 3266 3266 3267 3267 3266 3266 3266 3265 3265 3264 3263 3262 3262 3261 3260 3259 3258 3257 3256 3255 3254 3253
3193 3195 3197 3199 3201 3203 3205 3206 3208 3210 3211 3213 3214 3216 3218 3220 3221 3222 3224 3225 3226 3228 3230 3231 3232 3233 3234 3235 3236 3237 3239 3240 3241 3242 3243 3243 3244 3245 3246 3248 3249 3250 3250 3251 3252 3252 3253 3254 3255 3256 3257 3258 3259 3260 3261 3261 3262 3263 3264 3264 3265 3265 3265 3265 3265 3265 3266 3266 3265 3264 3264 3263 3262 3261 3261 3260 3260 3259 3258 3257 3256 3255 3254 3253 3252
3192 3193 3195 3197 3199 3200 3202 3204 3206 3207 3209 3211 3213 3214 3216 3218 3219 3220 3222 3223 3224 3226 3228 3229 3230 3231 3233 3234 3235 3236 3237 3238 3239 3241 3242 3242 3243 3244 3245 3246 3248 3249 3249 3250 3250 3251 3252 3253 3254 3255 3256 3257 3258 3259 3260 3261 3261 3262 3263 3263 3263 3263 3263 3263 3263 3263 3264 3264 3264 3263 3263 3262 3261 3260 3259 3259 3258 3257 3257 3256 3255 3254 3252 3251 3250
3190 3191 3193 3195 3196 3198 3200 3202 3203 3205 3207 3209 3211 3213 3214 3215 3217 3218 3220 3221 3223 3224 3225 3227 3228 3230 3231 3233 3234 3235 3236 3237 3238 3239 3240 3241 3242 3243 3244 3245 3246 3247 3248 3249 3249 3250 3251 3252 3253 3254 3255 3256 3257 3258 3259 3259 3260 3260 3261 3261 3261 3261 3261 3261 3261 3261 3262 3262 3262 3262 3261 3261 3260 3259 3258 3258 3257 3256 3255 3255 3254 3253 3251 3249 3249
3188 3190 3191 3193 3194 3196 3197 3199 3201 3203 3205 3207 3209 3210 3212 3213 3214 3216 3217 3219 3220 3222 3223 3225 3226 3228 3229 3231 3232 3233 3234 3235 3236 3237 3238 3239 3240 3241 3242 3243 3244 3245 3247 3247 3248 3249 3250 3251 3251 3252 3253 3254 3255 3256 3257 3258 3258 3259 3259 3259 3259 3259 3259 3259 3259 3259 3259 3260 3260 3260 3260 3259 3259 3258 3256 3255 3255 3254 3254 3254 3252 3251 3250 3248 3247
3186 3188 3189 3191 3192 3193 3195 3197 3199 3201 3203 3204 3206 3208 3209 3211 3212 3213 3215 3216 3218 3219 3221 3222 3224 3226 3227 3229 3230 3231 3232 3233 3234 3235 3236 3237 3238 3239 3240 3241 3242 3244 3245 3246 3247 3248 3249 3250 3250 3251 3252 3253 3254 3254 3255 3255 3256 3256 3257 3257 3257 3257 3257 3257 3257 3257 3257 3257 3257 3258 3258 3257 3257 3256 3254 3253 3252 3252 3252 3252 3251 3249 3248 3247 3246
3184 3185 3187 3188 3190 3191 3193 3195 3196 3198 3200 3202 3203 3205 3206 3208 3209 3211 3212 3213 3215 3216 3218 3220 3222 3223 3224 3226 3227 3229 3230 3231 3232 3233 3234 3235 3236 3237 3238 3239 3240 3242 3243 3244 3245 3246 3247 3248 3249 3249 3250 3251 3252 3252 3253 3253 3253 3254 3255 3255 3255 3255 3255 3255 3255 3255 3255 3255 3255 3255 3255 3255 3255 3253 3252 3251 3250 3249 3249 3250 3249 3248 3247 3246 3245
3180 3182 3184 3185 3187 3189 3191 3192 3193 3195 3197 3198 3200 3202 3203 3205 3207 3208 3209 3211 3212 3214 3215 3217 3218 3220 3221 3223 3224 3226 3227 3228 3229 3231 3232 3233 3234 3235 3236 3237 3238 3239 3240 3241 3242 3243 3244 3245 3246 3247 3248 3249 3250 3250 3250 3251 3251 3252 3252 3252 3252 3252 3252 3252 3252 3252 3252 3252 3253 3253 3252 3252 3252 3251 3250 3249 3248 3247 3247 3247 3247 3246 3246 3245 3243
3176 3178 3180 3182 3185 3187 3188 3189 3190 3192 3193 3195 3197 3198 3200 3201 3203 3205 3206 3208 3209 3211 3212 3214 3215 3217 3218 3220 3221 3222 3223 3225 3227 3228 3230 3231 3232 3233 3234 3235 3236 3237 3238 3239 3240 3241 3242 3243 3244 3245 3245 3246 3247 3248 3248 3248 3249 3249 3250 3249 3249 3249 3249 3249 3249 3249 3249 3249 3250 3249 3249 3249 3249 3248 3247 3246 3245 3245 3245 3244 3244 3244 3244 3243 3242
3172 3174 3176 3179 3182 3183 3185 3186 3187 3188 3190 3192 3193 3195 3196 3198 3199 3201 3203 3204 3206 3208 3209 3210 3212 3213 3215 3216 3218 3219 3220 3222 3224 3226 3227 3228 3229 3230 3231 3232 3233 3234 3235 3236 3237 3238 3239 3240 3241 3242 3242 3243 3244 3245 3245 3246 3246 3246 3247 3247 3246 3246 3246 3246 3246 3246 3246 3246 3246 3246 3246 3246 3246 3245 3244 3244 3243 3242 3242 3242 3242 3242 3242 3242 3241
3168 3170 3173 3176 3178 3179 3181 3182 3184 3185 3187 3188 3190 3191 3193 3194 3195 3197 3199 3200 3202 3204 3205 3207 3209 3210 3212 3213 3214 3216 3217 3219 3221 3223 3224 3226 3227 3227 3228 3229 3230 3231 3232 3233 3234 3236 3237 3237 3238 3239 3239 3240 3241 3242 3242 3242 3243 3243 3243 3243 3243 3243 3243 3243 3243 3243 3243 3243 3243 3243 3243 3243 3242 3242 3241 3241 3240 3240 3240 3240 3239 3239 3239 3239 3239
3165 3167 3170 3172 3174 3176 3177 3179 3180 3182 3183 3185 3186 3188 3189 3190 3192 3194 3195 3197 3198 3200 3201 3203 3205 3207 3208 3210 3211 3213 3214 3216 3218 3219 3221 3223 3224 3225 3225 3226 3227 3228 3229 3230 3231 3232 3233 3234 3235 3236 3237 3237 3238 3238 3239 3239 3239 3240 3240 3240 3240 3240 3240 3240 3240 3240 3240 3239 3239 3240 3240 3239 3239 3240 3239 3238 3238 3237 3237 3238 3237 3237 3237 3237 3237
3161 3164 3166 3169 3171 3173 3174 3175 3177 3178 3180 3181 3183 3184 3185 3187 3189 3190 3192 3193 3194 3196 3198 3199 3201 3203 3205 3206 3208 3210 3211 3213 3215 3216 3218 3219 3221 3221 3222 3223 3224 3225 3226 3227 3228 3229 3230 3231 3232 3233 3234 3234 3235 3235 3236 3236 3236 3236 3236 3237 3237 3237 3237 3237 3237 3237 3237 3236 3236 3237 3238 3237 3236 3237 3236 3235 3235 3235 3235 3235 3235 3235 3235 3234 3234
3157 3160 3163 3165 3167 3169 3171 3172 3173 3175 3177 3178 3179 3181 3182 3184 3185 3187 3188 3190 3191 3193 3194 3195 3197 3199 3201 3203 3204 3206 3208 3210 3212 3213 3214 3216 3217 3218 3219 3220 3221 3222 3223 3224 3225 3226 3227 3228 3229 3230 3231 3232 3232 3232 3233 3233 3233 3233 3233 3234 3234 3234 3234 3234 3235 3234 3234 3233 3233 3234 3235 3234 3234 3234 3234 3233 3233 3233 3232 3232 3232 3232 3232 3231 3231
3153 3156 3158 3161 3163 3165 3167 3169 3170 3172 3173 3174 3176 3178 3179 3181 3182 3184 3185 3186 3188 3189 3190 3192 3194 3195 3197 3199 3200 3202 3205 3207 3209 3210 3211 3212 3213 3214 3215 3216 3217 3218 3219 3221 3222 3223 3224 3224 3225 3227 3228 3229 3229 3230 3230 3230 3230 3230 3231 3231 3231 3231 3232 3232 3232 3231 3231 3231 3230 3231 3231 3231 3231 3231 3231 3231 3230 3230 3229 3229 3229 3229 3228 3228 3228
3149 3151 3154 3157 3159 3161 3163 3165 3167 3169 3170 3171 3172 3174 3176 3178 3179 3181 3182 3183 3184 3186 3187 3189 3190 3192 3193 3195 3196 3199 3201 3204 3205 3207 3208 3209 3209 3210 3211 3212 3213 3214 3216 3218 3218 3220 3221 3221 3222 3223 3224 3225 3226 3227 3227 3227 3227 3227 3227 3228 3228 3228 3229 3230 3229 3229 3228 3228 3228 3228 3228 3228 3228 3228 3228 3228 3228 3227 3227 3227 3227 3226 3224 3224 3224
3145 3147 3150 3153 3155 3157 3159 3161 3163 3165 3167 3168 3169 3171 3173 3174 3176 3177 3178 3179 3181 3182 3184 3185 3186 3188 3189 3191 3193 3195 3197 3200 3202 3203 3204 3205 3206 3207 3208 3209 3210 3211 3213 3214 3215 3216 3217 3218 3219 3220 3221 3222 3223 3224 3224 3223 3223 3224 3224 3225 3225 3225 3226 3227 3227 3226 3225 3225 3225 3225 3225 3225 3225 3225 3225 3225 3225 3224 3224 3224 3224 3222 3221 3221 3221
3140 3143 3146 3149 3152 3155 3157 3159 3160 3162 3164 3165 3167 3168 3170 3171 3173 3174 3174 3176 3177 3179 3180 3181 3183 3184 3186 3187 3189 3191 3193 3195 3197 3199 3201 3202 3202 3203 3204 3205 3206 3207 3209 3210 3211 3212 3214 3215 3216 3216 3217 3219 3220 3221 3221 3220 3220 3220 3221 3221 3221 3222 3224 3225 3223 3223 3222 3222 3222 3222 3222 3222 3222 3222 3223 3222 3222 3221 3221 3221 3220 3219 3218 3218 3218
3134 3138 3142 3147 3150 3152 3154 3156 3157 3159 3161 3163 3165 3166 3168 3169 3170 3170 3171 3172 3174 3175 3177 3178 3179 3181 3182 3184 3185 3187 3189 3191 3193 3195 3197 3198 3199 3200 3200 3201 3202 3204 3206 3207 3208 3209 3210 3211 3212 3213 3214 3215 3217 3217 3217 3216 3216 3217 3217 3216 3217 3219 3221 3220 3219 3219 3219 3219 3219 3219 3219 3219 3219 3220 3220 3220 3219 3219 3218 3217 3217 3216 3215 3215 3214
3130 3136 3141 3143 3146 3149 3150 3152 3154 3156 3158 3160 3162 3164 3165 3166 3167 3167 3168 3169 3170 3172 3173 3174 3176 3178 3179 3180 3182 3183 3185 3187 3189 3191 3192 3194 3195 3196 3196 3197 3199 3201 3202 3203 3204 3205 3206 3207 3209 3210 3211 3212 3213 3214 3213 3213 3213 3213 3213 3213 3214 3215 3216 3215 3215 3215 3215 3215 3216 3215 3215 3216 3217 3217 3217 3217 3216 3216 3215 3214 3213 3212 3212 3211 3211
3129 3134 3137 3138 3141 3144 3146 3148 3150 3152 3154 3156 3158 3160 3162 3163 3164 3164 3165 3166 3167 3169 3170 3171 3173 3174 3176 3177 3178 3180 3182 3183 3185 3186 3188 3189 3191 3192 3192 3194 3196 3197 3197 3198 3199 3201 3202 3204 3205 3206 3207 3208 3209 3210 3209 3209 3209 3209 3209 3210 3210 3211 3211 3211 3210 3210 3211 3211 3212 3212 3212 3213 3214 3214 3214 3214 3213 3212 3211 3210 3210 3209 3209 3208 3208
3126 3128 3130 3133 3136 3139 3141 3143 3145 3148 3150 3152 3154 3156 3158 3160 3161 3161 3162 3163 3164 3166 3167 3168 3169 3171 3172 3174 3175 3176 3178 3179 3181 3182 3184 3185 3186 3188 3188 3190 3191 3192 3193 3193 3195 3197 3198 3200 3201 3202 3203 3204 3205 3205 3206 3205 3205 3205 3205 3206 3206 3206 3206 3206 3206 3206 3207 3207 3207 3208 3209 3210 3210 3210 3210 3210 3210 3209 3207 3207 3206 3206 3206 3205 3205
3124 3124 3126 3129 3132 3134 3136 3138 3140 3143 3146 3148 3149 3152 3154 3156 3157 3158 3159 3160 3161 3162 3164 3165 3166 3167 3169 3170 3172 3173 3174 3176 3177 3178 3180 3181 3182 3184 3185 3186 3187 3188 3188 3189 3191 3193 3194 3196 3197 3199 3200 3200 3201 3201 3201 3201 3201 3201 3202 3202 3202 3202 3202 3202 3202 3202 3203 3203 3203 3204 3206 3207 3207 3207 3207 3207 3206 3204 3203 3203 3203 3203 3202 3202 3201
3121 3122 3123 3125 3128 3130 3132 3134 3136 3139 3141 3143 3145 3147 3150 3152 3153 3155 3156 3157 3158 3159 3160 3161 3162 3163 3165 3167 3168 3170 3170 3172 3173 3174 3176 3177 3178 3180 3181 3182 3183 3184 3184 3185 3187 3188 3190 3192 3193 3194 3195 3196 3196 3196 3196 3197 3197 3198 3198 3197 3197 3197 3198 3198 3199 3199 3199 3199 3200 3200 3202 3203 3203 3203 3203 3202 3201 3200 3200 3200 3199 3199 3199 3198 3198
3116 3118 3119 3121 3123 3126 3128 3131 3132 3135 3137 3139 3141 3143 3145 3147 3149 3151 3152 3153 3154 3156 3157 3158 3158 3159 3160 3162 3164 3166 3167 3168 3169 3170 3172 3173 3174 3176 3177 3177 3179 3179 3180 3181 3182 3184 3186 3187 3188 3189 3190 3191 3191 3191 3191 3192 3193 3193 3192 3192 3192 3193 3194 3194 3195 3195 3195 3196 3196 3197 3198 3199 3199 3198 3198 3198 3197 3197 3197 3196 3196 3195 3195 3194 3194
3112 3113 3115 3117 3119 3121 3124 3127 3129 3130 3132 3134 3136 3139 3141 3143 3145 3146 3148 3149 3151 3152 3153 3154 3155 3155 3156 3158 3159 3161 3162 3164 3166 3167 3167 3169 3170 3172 3173 3174 3175 3175 3176 3177 3178 3180 3181 3182 3183 3184 3185 3185 3186 3186 3186 3187 3188 3188 3188 3188 3188 3189 3189 3190 3190 3190 3191 3192 3192 3193 3194 3194 3194 3194 3194 3194 3193 3193 3192 3192 3191 3191 3191 3190 3190
3110 3110 3111 3113 3115 3117 3120 3123 3125 3126 3128 3130 3132 3134 3135 3137 3140 3142 3144 3145 3146 3147 3149 3150 3151 3152 3153 3154 3154 3156 3157 3159 3161 3163 3163 3164 3166 3168 3169 3170 3171 3172 3172 3174 3175 3176 3177 3178 3178 3179 3179 3180 3181 3181 3181 3181 3182 3183 3184 3184 3184 3184 3185 3185 3185 3185 3187 3188 3188 3188 3189 3189 3189 3189 3189 3189 3188 3188 3188 3187 3187 3187 3187 3186 3185
3106 3107 3108 3109 3111 3114 3117 3119 3121 3122 3124 3126 3128 3129 3131 3133 3134 3137 3139 3140 3141 3143 3144 3145 3147 3149 3149 3150 3150 3151 3152 3154 3157 3158 3159 3160 3161 3163 3164 3165 3166 3167 3168 3169 3169 3170 3171 3172 3172 3173 3174 3175 3175 3175 3175 3176 3177 3178 3179 3179 3180 3180 3180 3179 3180 3181 3182 3183 3183 3183 3184 3184 3184 3185 3184 3184 3184 3184 3183 3183 3183 3183 3182 3182 3181
3103 3104 3105 3106 3108 3110 3114 3116 3116 3117 3119 3122 3124 3125 3126 3128 3129 3131 3134 3135 3137 3138 3140 3141 3143 3144 3145 3145 3146 3147 3148 3149 3151 3151 3152 3153 3155 3156 3158 3160 3161 3162 3162 3162 3162 3163 3165 3165 3166 3167 3168 3169 3170 3170 3170 3171 3172 3173 3174 3175 3175 3174 3174 3174 3175 3176 3177 3177 3178 3179 3179 3180 3180 3180 3180 3180 3180 3179 3179 3179 3178 3178 3178 3178 3178
3099 3100 3102 3104 3105 3106 3109 3112 3113 3114 3115 3117 3118 3120 3121 3123 3125 3127 3129 3130 3132 3134 3135 3137 3139 3140 3140 3141 3142 3143 3143 3144 3145 3145 3146 3148 3149 3150 3151 3153 3155 3155 3156 3156 3156 3157 3159 3159 3160 3161 3162 3163 3164 3165 3165 3165 3167 3168 3169 3169 3169 3169 3169 3169 3171 3172 3172 3172 3173 3174 3174 3174 3174 3174 3174 3175 3174 3174 3174 3174 3173 3173 3173 3173 3173
3095 3097 3099 3101 3102 3103 3105 3108 3110 3112 3112 3113 3114 3115 3117 3119 3120 3122 3124 3125 3127 3129 3131 3133 3134 3135 3136 3137 3137 3138 3139 3140 3140 3140 3141 3142 3143 3144 3145 3146 3147 3148 3149 3149 3150 3152 3153 3153 3154 3155 3156 3157 3158 3159 3160 3160 3162 3163 3164 3163 3163 3164 3164 3166 3167 3167 3167 3167 3168 3168 3168 3169 3169 3169 3169 3169 3169 3169 3169 3169 3168 3168 3168 3168 3168
3091 3093 3095 3097 3099 3101 3102 3104 3106 3107 3107 3108 3109 3111 3112 3114 3116 3118 3119 3120 3122 3124 3126 3128 3130 3131 3132 3133 3133 3134 3135 3136 3136 3136 3137 3138 3138 3138 3139 3139 3140 3141 3142 3143 3145 3147 3148 3147 3148 3149 3150 3151 3153 3154 3155 3155 3157 3158 3158 3158 3158 3159 3161 3162 3163 3162 3162 3162 3163 3163 3164 3164 3164 3164 3164 3164 3164 3164 3163 3163 3163 3163 3163 3163 3162
3087 3089 3091 3092 3095 3097 3099 3100 3101 3101 3102 3103 3105 3106 3108 3109 3111 3113 3114 3116 3117 3118 3121 3123 3125 3126 3127 3128 3130 3131 3131 3132 3132 3132 3133 3134 3134 3134 3133 3133 3134 3135 3136 3137 3139 3141 3142 3142 3142 3143 3144 3146 3148 3149 3149 3150 3152 3152 3153 3153 3154 3155 3157 3157 3157 3157 3158 3158 3158 3158 3159 3159 3159 3159 3159 3159 3159 3159 3158 3158 3159 3159 3158 3157 3157
3084 3085 3086 3087 3089 3091 3094 3095 3096 3097 3098 3099 3100 3101 3103 3105 3106 3108 3109 3111 3112 3113 3115 3118 3120 3121 3122 3123 3125 3126 3127 3127 3128 3128 3129 3129 3129 3128 3128 3128 3129 3130 3131 3132 3133 3135 3136 3136 3137 3138 3140 3141 3143 3144 3144 3145 3147 3147 3148 3149 3150 3151 3152 3152 3152 3153 3153 3153 3153 3153 3153 3154 3154 3154 3154 3154 3154 3153 3153 3154 3154 3153 3153 3153 3154
3080 3081 3081 3082 3084 3086 3088 3090 3091 3092 3094 3095 3096 3097 3098 3100 3101 3103 3105 3106 3107 3109 3111 3113 3114 3115 3116 3118 3120 3121 3122 3123 3123 3123 3123 3123 3123 3123 3122 3123 3124 3125 3126 3127 3128 3129 3130 3131 3132 3133 3135 3136 3138 3139 3140 3141 3142 3143 3143 3144 3145 3146 3146 3147 3147 3148 3148 3148 3148 3148 3148 3148 3149 3148 3148 3148 3148 3148 3149 3149 3149 3149 3148 3149 3150
3076 3076 3077 3077 3079 3080 3082 3084 3086 3087 3089 3090 3091 3092 3094 3095 3096 3098 3099 3101 3102 3103 3105 3107 3108 3108 3110 3113 3116 3116 3117 3117 3117 3117 3117 3117 3117 3117 3118 3119 3119 3119 3120 3121 3122 3123 3124 3125 3126 3127 3129 3131 3133 3134 3135 3136 3137 3138 3138 3139 3140 3140 3141 3142 3143 3143 3142 3142 3143 3143 3143 3143 3143 3143 3142 3142 3143 3143 3144 3144 3144 3144 3144 3145 3145
3071 3071 3072 3072 3073 3075 3077 3079 3080 3082 3084 3085 3086 3087 3089 3090 3091 3092 3094 3095 3097 3098 3099 3101 3101 3101 3104 3108 3110 3110 3109 3110 3110 3111 3111 3111 3112 3112 3113 3113 3113 3113 3114 3115 3116 3117 3118 3119 3120 3121 3122 3125 3127 3128 3129 3130 3132 3133 3133 3134 3134 3135 3136 3137 3137 3137 3137 3137 3138 3138 3138 3138 3137 3137 3138 3138 3138 3138 3139 3139 3138 3138 3139 3140 3140
3066 3067 3067 3068 3068 3069 3071 3073 3075 3077 3078 3080 3081 3082 3083 3085 3086 3087 3088 3089 3091 3092 3093 3094 3095 3096 3098 3101 3101 3101 3101 3102 3103 3105 3106 3106 3106 3107 3107 3107 3106 3106 3107 3108 3110 3111 3112 3113 3114 3115 3117 3118 3120 3122 3123 3124 3126 3128 3128 3129 3129 3130 3130 3131 3131 3131 3132 3133 3133 3133 3133 3133 3133 3133 3134 3134 3134 3134 3133 3132 3131 3131 3133 3134 3134
3061 3062 3063 3063 3064 3065 3066 3067 3069 3071 3072 3074 3076 3077 3078 3079 3080 3081 3082 3083 3084 3086 3087 3088 3089 3091 3092 3093 3092 3092 3093 3095 3097 3098 3098 3098 3099 3100 3100 3100 3100 3100 3100 3100 3103 3105 3106 3107 3109 3110 3111 3112 3114 3115 3117 3118 3120 3122 3123 3123 3123 3124 3124 3125 3126 3126 3127 3128 3128 3128 3128 3128 3128 3129 3130 3129 3128 3128 3127 3126 3126 3127 3129 3130 3131
3056 3057 3058 3059 3059 3060 3061 3062 3063 3065 3066 3068 3069 3071 3072 3072 3073 3074 3075 3077 3078 3079 3081 3082 3083 3085 3086 3086 3085 3085 3085 3087 3089 3090 3090 3090 3091 3092 3093 3093 3094 3094 3094 3094 3096 3099 3100 3101 3103 3104 3105 3106 3108 3109 3110 3111 3113 3115 3116 3117 3117 3118 3119 3119 3120 3121 3122 3123 3123 3123 3123 3123 3123 3124 3124 3123 3123 3124 3123 3122 3122 3124 3126 3127 3127
3051 3052 3053 3054 3055 3056 3056 3057 3058 3059 3060 3061 3062 3064 3065 3066 3067 3068 3069 3070 3071 3073 3074 3075 3077 3079 3080 3080 3079 3078 3077 3079 3080 3081 3082 3083 3084 3085 3085 3085 3086 3087 3086 3087 3090 3092 3092 3093 3095 3097 3098 3100 3101 3102 3103 3105 3107 3109 3110 3111 3111 3112 3113 3113 3115 3116 3116 3117 3117 3118 3118 3118 3118 3118 3117 3117 3118 3119 3119 3118 3118 3120 3124 3125 3124
3047 3048 3049 3049 3050 3050 3051 3052 3052 3053 3054 3055 3056 3057 3058 3059 3060 3061 3062 3063 3065 3066 3067 3069 3070 3072 3073 3073 3072 3071 3071 3071 3072 3073 3075 3076 3078 3078 3078 3078 3079 3079 3078 3079 3082 3085 3085 3085 3087 3090 3092 3093 3094 3095 3096 3098 3100 3102 3103 3104 3105 3105 3106 3107 3108 3109 3110 3110 3111 3112 3112 3112 3112 3112 3111 3111 3112 3113 3114 3114 3114 3116 3118 3120 3119
3042 3043 3044 3044 3045 3045 3045 3046 3046 3047 3048 3049 3049 3050 3052 3053 3054 3054 3055 3056 3058 3059 3060 3061 3063 3064 3065 3065 3065 3064 3064 3064 3065 3066 3067 3070 3071 3071 3071 3071 3072 3072 3072 3072 3074 3077 3078 3079 3080 3082 3085 3086 3087 3087 3088 3091 3093 3094 3095 3097 3098 3098 3099 3101 3102 3103 3104 3104 3105 3106 3107 3108 3108 3107 3106 3106 3106 3107 3108 3110 3112 3112 3112 3112 3111
3037 3038 3039 3039 3039 3039 3039 3040 3040 3041 3041 3042 3043 3044 3045 3046 3047 3048 3048 3049 3051 3052 3053 3054 3055 3056 3057 3057 3057 3056 3056 3056 3057 3058 3060 3062 3064 3064 3064 3065 3065 3066 3066 3067 3068 3069 3070 3071 3072 3074 3077 3079 3080 3080 3080 3081 3084 3087 3089 3091 3091 3092 3093 3096 3097 3098 3097 3098 3099 3101 3102 3103 3103 3103 3102 3101 3102 3102 3101 3103 3106 3107 3107 3105 3104
3033 3033 3034 3034 3034 3034 3034 3034 3034 3035 3035 3036 3037 3038 3039 3040 3040 3041 3042 3042 3043 3044 3045 3046 3047 3048 3049 3049 3049 3048 3048 3048 3049 3051 3053 3055 3057 3057 3058 3058 3059 3059 3060 3061 3062 3062 3062 3063 3063 3065 3068 3069 3070 3069 3069 3071 3076 3081 3083 3084 3085 3086 3088 3090 3091 3090 3091 3092 3094 3096 3098 3098 3099 3098 3098 3098 3097 3097 3096 3096 3098 3099 3099 3099 3100
3028 3029 3029 3029 3029 3029 3028 3028 3028 3029 3029 3030 3031 3031 3032 3033 3034 3034 3035 3036 3037 3037 3038 3039 3039 3040 3040 3041 3040 3040 3040 3040 3042 3044 3046 3048 3049 3050 3051 3051 3052 3053 3054 3055 3055 3055 3055 3055 3056 3057 3058 3059 3059 3060 3060 3063 3069 3073 3076 3077 3079 3080 3081 3082 3083 3083 3084 3086 3087 3089 3092 3093 3094 3094 3094 3094 3093 3092 3091 3091 3092 3093 3093 3093 3094
3024 3024 3024 3025 3024 3024 3023 3023 3023 3023 3024 3024 3024 3025 3026 3027 3027 3028 3029 3030 3031 3031 3032 3032 3032 3032 3032 3032 3032 3032 3032 3033 3034 3037 3039 3041 3042 3043 3044 3045 3047 3049 3049 3050 3050 3050 3049 3049 3050 3051 3052 3052 3054 3055 3055 3058 3062 3067 3069 3070 3072 3073 3074 3075 3076 3076 3076 3077 3079 3083 3086 3088 3090 3090 3090 3089 3088 3087 3087 3086 3087 3087 3087 3087 3088
3020 3020 3020 3020 3020 3019 3019 3018 3018 3018 3018 3018 3019 3019 3019 3020 3021 3021 3022 3023 3024 3025 3025 3025 3025 3025 3024 3024 3024 3024 3024 3025 3027 3030 3032 3034 3035 3035 3036 3039 3042 3043 3043 3043 3044 3044 3044 3045 3046 3046 3046 3047 3049 3049 3050 3052 3055 3059 3062 3064 3066 3068 3068 3067 3067 3067 3067 3070 3075 3079 3081 3083 3084 3085 3084 3084 3083 3082 3081 3081 3081 3081 3082 3082 3082
3016 3016 3016 3016 3016 3015 3015 3014 3014 3014 3014 3013 3013 3013 3013 3013 3014 3015 3016 3017 3017 3018 3019 3018 3018 3018 3017 3017 3018 3018 3018 3019 3020 3023 3025 3027 3028 3028 3029 3031 3034 3035 3036 3037 3038 3038 3038 3040 3040 3041 3041 3041 3042 3043 3044 3046 3049 3052 3054 3056 3057 3058 3057 3056 3056 3057 3061 3065 3071 3074 3076 3078 3079 3079 3079 3078 3077 3075 3075 3076 3076 3076 3077 3077 3077
3013 3013 3013 3013 3012 3012 3011 3011 3011 3010 3010 3009 3009 3008 3008 3008 3008 3008 3009 3010 3011 3011 3012 3012 3012 3012 3011 3011 3011 3012 3013 3014 3015 3017 3018 3019 3020 3020 3022 3024 3025 3026 3028 3031 3032 3032 3033 3034 3035 3036 3036 3037 3038 3040 3042 3043 3045 3048 3048 3047 3047 3047 3048 3050 3052 3055 3059 3064 3067 3068 3070 3073 3073 3072 3071 3070 3069 3068 3069 3071 3072 3072 3072 3072 3072